Weather History for Farmville, VA

Change the Weather History Date:

Thursday, October 25, 2012

  Actual Average Record
Temperature  
Mean Temperature 67 °F -  
Max Temperature 84 °F 67 °F 84 °F (1975)
Min Temperature 50 °F 44 °F 22 °F (1962)
Cooling Degree Days 2    
Growing Degree Days 17 (Base 50)    
Moisture  
Dew Point 52 °F    
Average Humidity 66    
Maximum Humidity 100    
Minimum Humidity 26    
Precipitation  
Precipitation 0.00 in - - ()
Sea Level Pressure  
Sea Level Pressure 30.12 in    
Wind  
Wind Speed 1 mph (ESE)    
Max Wind Speed 6 mph    
Max Gust Speed -    
Visibility 8 miles    
Events      
Averages and records for this station are not official NWS values.
T = Trace of Precipitation, MM = Missing Value Source: NWS Daily Summary

Daily Weather History Graph

Daily Weather History Graph

Search for Another Location

Airport:

Trip Planner

Search our weather history database for the weather conditions in past years. The results will help you decide how hot, cold, wet, or windy it might be!

Date:

Astronomy

Oct. 25, 2012 Rise Set
Actual Time 7:31 AM EDT 6:23 PM EDT
Civil Twilight 7:05 AM EDT 6:49 PM EDT
Nautical Twilight 6:34 AM EDT 7:20 PM EDT
Astronomical Twilight 6:04 AM EDT 7:50 PM EDT
Moon 4:04 PM EDT (10/25) 3:31 AM EDT (10/25)
Length of Visible Light 11h 44m
Length of Day
10h 51m
Waxing Gibbous, 84% of the Moon is Illuminated
Oct 25
Waxing Gibbous
Oct 29
Full
Nov 6
Last Quarter
Nov 13
New
Nov 20
First Quarter

Hourly Weather History & Observations

Time (EDT) Temp. Dew Point Humidity Pressure Visibility Wind Dir Wind Speed Gust Speed Precip Events Conditions
12:15 AM 57.2 °F 53.6 °F 88% 30.11 in 10.0 mi Calm Calm - N/A   Clear
12:35 AM 57.2 °F 55.4 °F 94% 30.11 in 10.0 mi Calm Calm - N/A   Clear
12:55 AM 57.2 °F 53.6 °F 88% 30.11 in 10.0 mi Calm Calm - N/A   Clear
1:35 AM 55.4 °F 53.6 °F 94% 30.12 in 7.0 mi Calm Calm - N/A   Clear
1:55 AM 55.4 °F 53.6 °F 94% 30.12 in 7.0 mi Calm Calm - N/A   Clear
2:15 AM 53.6 °F 53.6 °F 100% 30.12 in 7.0 mi Calm Calm - N/A   Clear
2:35 AM 53.6 °F 51.8 °F 94% 30.12 in 7.0 mi Calm Calm - N/A   Clear
2:55 AM 55.4 °F 53.6 °F 94% 30.12 in 7.0 mi Calm Calm - N/A   Clear
3:35 AM 53.6 °F 51.8 °F 94% 30.10 in 5.0 mi Calm Calm - N/A   Clear
3:55 AM 55.4 °F 53.6 °F 94% 30.10 in 10.0 mi Calm Calm - N/A   Clear
4:15 AM 53.6 °F 51.8 °F 94% 30.10 in 7.0 mi Calm Calm - N/A   Clear
4:35 AM 53.6 °F 51.8 °F 94% 30.10 in 2.5 mi Calm Calm - N/A   Clear
4:55 AM 53.6 °F 51.8 °F 94% 30.11 in 1.8 mi Calm Calm - N/A   Mist
5:15 AM 51.8 °F 51.8 °F 100% 30.11 in 2.0 mi Calm Calm - N/A   Clear
5:35 AM 53.6 °F 51.8 °F 94% 30.11 in 3.0 mi Calm Calm - N/A   Clear
5:55 AM 51.8 °F 51.8 °F 100% 30.12 in 0.8 mi Calm Calm - N/A   Mist
6:15 AM 51.8 °F 48.2 °F 88% 30.12 in 1.8 mi Calm Calm - N/A   Mist
6:35 AM 50.0 °F 48.2 °F 94% 30.12 in 5.0 mi Calm Calm - N/A   Clear
6:55 AM 51.8 °F 50.0 °F 94% 30.12 in 4.0 mi Calm Calm - N/A   Clear
7:15 AM 50.0 °F 48.2 °F 94% 30.12 in 5.0 mi Calm Calm - N/A   Clear
7:55 AM 50.0 °F 48.2 °F 94% 30.14 in 5.0 mi Calm Calm - N/A   Clear
8:15 AM 51.8 °F 51.8 °F 100% 30.14 in 5.0 mi Calm Calm - N/A   Clear
8:35 AM 55.4 °F 53.6 °F 94% 30.15 in 7.0 mi Calm Calm - N/A   Clear
8:55 AM 59.0 °F 55.4 °F 88% 30.15 in 10.0 mi Calm Calm - N/A   Clear
9:35 AM 62.6 °F 53.6 °F 72% 30.16 in 10.0 mi NE 3.5 mph - N/A   Clear
9:55 AM 64.4 °F 53.6 °F 68% 30.16 in 10.0 mi NE 3.5 mph - N/A   Clear
10:15 AM 64.4 °F 53.6 °F 68% 30.16 in 10.0 mi NNE 4.6 mph - N/A   Clear
10:55 AM 69.8 °F 53.6 °F 56% 30.16 in 10.0 mi NNE 3.5 mph - N/A   Clear
11:15 AM 71.6 °F 53.6 °F 53% 30.16 in 10.0 mi Calm Calm - N/A   Clear
11:35 AM 75.2 °F 53.6 °F 47% 30.16 in 10.0 mi Calm Calm - N/A   Clear
11:55 AM 75.2 °F 53.6 °F 47% 30.15 in 10.0 mi Calm Calm - N/A   Clear
12:15 PM 77.0 °F 55.4 °F 47% 30.15 in 10.0 mi NNE 3.5 mph - N/A   Clear
12:35 PM 78.8 °F 53.6 °F 42% 30.14 in 10.0 mi Calm Calm - N/A   Clear
1:15 PM 82.4 °F 48.2 °F 30% 30.13 in 10.0 mi SSE 5.8 mph - N/A   Clear
1:35 PM 80.6 °F 50.0 °F 34% 30.12 in 10.0 mi Calm Calm - N/A   Clear
1:55 PM 82.4 °F 46.4 °F 28% 30.12 in 10.0 mi ESE 4.6 mph - N/A   Clear
2:15 PM 82.4 °F 46.4 °F 28% 30.11 in 10.0 mi Calm Calm - N/A   Clear
2:35 PM 84.2 °F 46.4 °F 27% 30.11 in 10.0 mi ESE 4.6 mph - N/A   Clear
2:55 PM 82.4 °F 44.6 °F 26% 30.10 in 10.0 mi ESE 3.5 mph - N/A   Clear
3:15 PM 82.4 °F 44.6 °F 26% 30.10 in 10.0 mi SSE 5.8 mph - N/A   Clear
3:35 PM 82.4 °F 44.6 °F 26% 30.11 in 10.0 mi SE 4.6 mph - N/A   Clear
4:15 PM 82.4 °F 46.4 °F 28% 30.10 in 10.0 mi SSE 5.8 mph - N/A   Clear
4:35 PM 82.4 °F 46.4 °F 28% 30.10 in 10.0 mi ESE 4.6 mph - N/A   Clear
4:55 PM 80.6 °F 46.4 °F 30% 30.10 in 10.0 mi SE 4.6 mph - N/A   Clear
5:15 PM 80.6 °F 46.4 °F 30% 30.10 in 10.0 mi SE 4.6 mph - N/A   Clear
5:35 PM 80.6 °F 48.2 °F 32% 30.10 in 10.0 mi Calm Calm - N/A   Clear
5:55 PM 78.8 °F 48.2 °F 34% 30.10 in 10.0 mi Calm Calm - N/A   Clear
6:15 PM 77.0 °F 48.2 °F 36% 30.10 in 10.0 mi Calm Calm - N/A   Clear
6:35 PM 73.4 °F 50.0 °F 44% 30.11 in 10.0 mi Calm Calm - N/A   Clear
6:55 PM 71.6 °F 50.0 °F 46% 30.11 in 10.0 mi Calm Calm - N/A   Clear
7:15 PM 71.6 °F 50.0 °F 46% 30.12 in 10.0 mi Calm Calm - N/A   Clear
7:35 PM 71.6 °F 50.0 °F 46% 30.12 in 10.0 mi Calm Calm - N/A   Clear
7:55 PM 71.6 °F 51.8 °F 50% 30.12 in 10.0 mi Calm Calm - N/A   Clear
8:15 PM 69.8 °F 51.8 °F 53% 30.13 in 10.0 mi Calm Calm - N/A   Clear
8:35 PM 69.8 °F 53.6 °F 56% 30.13 in 10.0 mi Calm Calm - N/A   Clear
8:55 PM 68.0 °F 55.4 °F 64% 30.14 in 10.0 mi Calm Calm - N/A   Clear
9:15 PM 68.0 °F 55.4 °F 64% 30.14 in 10.0 mi Calm Calm - N/A   Clear
9:35 PM 66.2 °F 57.2 °F 73% 30.14 in 10.0 mi Calm Calm - N/A   Clear
9:55 PM 66.2 °F 57.2 °F 73% 30.14 in 10.0 mi Calm Calm - N/A   Clear
10:15 PM 66.2 °F 59.0 °F 78% 30.14 in 10.0 mi Calm Calm - N/A   Clear
10:35 PM 64.4 °F 60.8 °F 88% 30.14 in 10.0 mi Calm Calm - N/A   Clear
10:55 PM 64.4 °F 60.8 °F 88% 30.13 in 10.0 mi Calm Calm - N/A   Clear
11:35 PM 62.6 °F 60.8 °F 94% 30.12 in 7.0 mi Calm Calm - N/A   Clear
11:55 PM 62.6 °F 60.8 °F 94% 30.12 in 7.0 mi Calm Calm - N/A   Scattered Clouds